Concord, NH

4:09 AM EST on December 06, 2016 (GMT -0500)
Concord Municipal

Weather History for KCON - March, 2013

Change the Weather History Date:

Thursday, March 7, 2013

  Actual Average Record
Temperature  
Mean Temperature 32 °F 30 °F  
Max Temperature 34 °F 41 °F 73 °F (1876)
Min Temperature 30 °F 19 °F -8 °F (2003)
Degree Days  
Heating Degree Days 33 35  
Month to date heating degree days 226 252  
Since 1 July heating degree days 5155 5512  
Cooling Degree Days 0 0  
Month to date cooling degree days 0 0  
Year to date cooling degree days 0 0  
Moisture  
Dew Point 26 °F    
Average Humidity 81    
Maximum Humidity 92    
Minimum Humidity 69    
Precipitation  
Precipitation 0.10 in 0.10 in 1.50 in (2011)
Month to date precipitation 0.14 0.69  
Year to date precipitation 5.23 6.01  
Snow  
Snow 2.30 in 0.50 in 10.40 in (1967)
Month to date snowfall 2.8 3.1  
Since 1 July snowfall 70.0 50.6  
Snow Depth 11.00 in    
Sea Level Pressure  
Sea Level Pressure 30.10 in    
Wind  
Wind Speed 12 mph (North)    
Max Wind Speed 20 mph    
Max Gust Speed 28 mph    
Visibility 4 miles    
Events Snow    
T = Trace of Precipitation, MM = Missing Value Source: NWS Daily Summary

Daily Weather History Graph

Daily Weather History Graph

Search for Another Location

Airport or City:

Trip Planner

Search our weather history database for the weather conditions in past years. The results will help you decide how hot, cold, wet, or windy it might be!

Date:

Astronomy

Mar. 07, 2013 Rise Set
Actual Time 6:11 AM EST 5:42 PM EST
Civil Twilight 5:43 AM EST 6:11 PM EST
Nautical Twilight 5:10 AM EST 6:44 PM EST
Astronomical Twilight 4:37 AM EST 7:17 PM EST
Moon 3:15 AM EST (3/7) 1:21 PM EST (3/7)
Length of Visible Light 12h 28m
Length of Day
11h 31m
Waning Crescent, 20% of the Moon is Illuminated
Mar 7
Waning Crescent
Mar 11
New
Mar 19
First Quarter
Mar 27
Full
Apr 3
Last Quarter

Hourly Weather History & Observations

Time (EST) Temp. Windchill Dew Point Humidity Pressure Visibility Wind Dir Wind Speed Gust Speed Precip Events Conditions
12:51 AM 30.9 °F 20.2 °F 27.0 °F 85% 30.17 in 7.0 mi NNE 15.0 mph 19.6 mph N/A   Overcast
1:41 AM 30.2 °F 20.8 °F 28.4 °F 93% 30.14 in 4.0 mi NE 11.5 mph - N/A   Overcast
1:51 AM 30.0 °F 20.5 °F 28.0 °F 92% 30.15 in 5.0 mi NNE 11.5 mph - N/A   Overcast
2:51 AM 30.0 °F 20.5 °F 26.1 °F 85% 30.13 in 9.0 mi NNE 11.5 mph 18.4 mph N/A   Overcast
3:51 AM 30.9 °F 21.7 °F 25.0 °F 79% 30.13 in 10.0 mi North 11.5 mph - N/A   Overcast
4:51 AM 30.9 °F 20.7 °F 24.1 °F 76% 30.13 in 10.0 mi North 13.8 mph 19.6 mph N/A   Overcast
5:51 AM 30.0 °F 20.0 °F 23.0 °F 75% 30.12 in 10.0 mi North 12.7 mph 18.4 mph N/A   Overcast
6:51 AM 30.0 °F 18.3 °F 23.0 °F 75% 30.13 in 10.0 mi NNE 17.3 mph - N/A   Overcast
7:51 AM 30.9 °F 20.7 °F 23.0 °F 72% 30.14 in 10.0 mi NNE 13.8 mph 21.9 mph N/A   Overcast
8:51 AM 32.0 °F 22.1 °F 24.1 °F 73% 30.13 in 10.0 mi North 13.8 mph 21.9 mph N/A   Overcast
9:51 AM 32.0 °F 23.6 °F 24.1 °F 73% 30.13 in 9.0 mi NNE 10.4 mph 18.4 mph N/A   Overcast
10:51 AM 33.1 °F 23.0 °F 24.1 °F 70% 30.12 in 10.0 mi NNE 15.0 mph 21.9 mph 0.00 in   Overcast
11:51 AM 34.0 °F 26.0 °F 24.1 °F 67% 30.12 in 10.0 mi NNE 10.4 mph - N/A   Overcast
12:51 PM 33.1 °F 23.4 °F 24.1 °F 70% 30.11 in 7.0 mi North 13.8 mph 23.0 mph N/A   Overcast
1:06 PM 33.8 °F 23.9 °F 24.8 °F 70% 30.09 in 6.0 mi NNE 15.0 mph 21.9 mph 0.00 in Snow Light Snow
1:51 PM 34.0 °F 23.8 °F 24.1 °F 67% 30.10 in 9.0 mi NNE 16.1 mph 24.2 mph 0.00 in Snow Light Snow
2:46 PM 33.8 °F 24.3 °F 24.8 °F 70% 30.09 in 4.0 mi North 13.8 mph 21.9 mph 0.00 in Snow Light Snow
2:51 PM 33.1 °F 24.4 °F 25.0 °F 72% 30.11 in 4.0 mi North 11.5 mph 21.9 mph 0.00 in Snow Light Snow
3:15 PM 33.8 °F 25.3 °F 26.6 °F 75% 30.09 in 3.0 mi North 11.5 mph 18.4 mph 0.00 in Snow Light Snow
3:29 PM 32.0 °F 24.8 °F 26.6 °F 80% 30.09 in 1.8 mi North 8.1 mph - 0.00 in Snow Light Snow
3:42 PM 32.0 °F 24.8 °F 26.6 °F 80% 30.09 in 1.0 mi North 8.1 mph - 0.00 in Snow Light Snow
3:51 PM 30.9 °F 23.5 °F 28.0 °F 89% 30.11 in 0.8 mi North 8.1 mph - 0.00 in Snow Light Snow
4:16 PM 30.2 °F 22.6 °F 28.4 °F 93% 30.09 in 1.0 mi NNW 8.1 mph - 0.01 in Snow Light Snow
4:39 PM 30.2 °F 21.3 °F 28.4 °F 93% 30.09 in 1.0 mi NNW 10.4 mph - 0.01 in Snow Light Snow
4:51 PM 30.9 °F 22.8 °F 28.0 °F 89% 30.10 in 0.8 mi NNW 9.2 mph - 0.02 in Snow Light Snow
4:59 PM 30.2 °F 21.3 °F 28.4 °F 93% 30.09 in 1.0 mi NNW 10.4 mph - 0.00 in Snow Light Snow
5:08 PM 30.2 °F 20.8 °F 28.4 °F 93% 30.10 in 0.8 mi North 11.5 mph - 0.00 in Snow Light Snow
5:51 PM 30.0 °F 20.5 °F 28.0 °F 92% 30.11 in 1.2 mi North 11.5 mph - 0.02 in Snow Light Snow
5:54 PM 30.2 °F 20.8 °F 28.4 °F 93% 30.10 in 2.0 mi North 11.5 mph - 0.00 in Snow Light Snow
6:24 PM 30.2 °F 21.9 °F 28.4 °F 93% 30.10 in 1.8 mi North 9.2 mph - 0.01 in Snow Light Snow
6:51 PM 30.0 °F 23.2 °F 28.0 °F 92% 30.11 in 2.0 mi NNW 6.9 mph - 0.02 in Snow Light Snow
7:02 PM 30.2 °F 22.6 °F 28.4 °F 93% 30.09 in 1.8 mi North 8.1 mph - 0.00 in Snow Light Snow
7:25 PM 30.2 °F 22.6 °F 28.4 °F 93% 30.09 in 1.2 mi North 8.1 mph - 0.00 in Snow Light Snow
7:43 PM 30.2 °F 22.6 °F 28.4 °F 93% 30.09 in 1.8 mi NNW 8.1 mph - 0.01 in Snow Light Snow
7:51 PM 30.0 °F 22.4 °F 28.0 °F 92% 30.11 in 1.8 mi NNW 8.1 mph - 0.02 in Snow Light Snow
7:58 PM 30.2 °F 24.3 °F 28.4 °F 93% 30.09 in 2.0 mi NNW 5.8 mph - 0.00 in Snow Light Snow
8:03 PM 30.2 °F 23.4 °F 28.4 °F 93% 30.09 in 3.0 mi North 6.9 mph - 0.00 in Snow Light Snow
8:51 PM 30.9 °F 24.3 °F 26.1 °F 82% 30.10 in 9.0 mi North 6.9 mph - 0.00 in   Overcast
9:23 PM 30.2 °F 21.9 °F 24.8 °F 80% 30.08 in 2.0 mi North 9.2 mph - 0.00 in Snow Light Snow
9:42 PM 30.2 °F 22.6 °F 26.6 °F 86% 30.07 in 1.8 mi North 8.1 mph - 0.00 in Snow Light Snow
9:51 PM 30.0 °F 21.7 °F 26.1 °F 85% 30.09 in 1.5 mi North 9.2 mph - 0.00 in Snow Light Snow
9:59 PM 30.2 °F 21.9 °F 26.6 °F 86% 30.07 in 3.0 mi North 9.2 mph - 0.00 in Snow Light Snow
10:16 PM 30.2 °F 21.9 °F 26.6 °F 86% 30.07 in 2.0 mi North 9.2 mph - 0.00 in Snow Light Snow
10:24 PM 30.2 °F 21.9 °F 26.6 °F 86% 30.07 in 1.5 mi North 9.2 mph - 0.00 in Snow Light Snow
10:36 PM 30.2 °F 22.6 °F 26.6 °F 86% 30.07 in 1.2 mi North 8.1 mph - 0.01 in Snow Light Snow
10:43 PM 30.2 °F 22.6 °F 26.6 °F 86% 30.07 in 1.8 mi North 8.1 mph - 0.01 in Snow Light Snow
10:51 PM 30.0 °F 22.4 °F 27.0 °F 88% 30.08 in 2.5 mi North 8.1 mph - 0.01 in Snow Light Snow
11:12 PM 30.2 °F 21.9 °F 26.6 °F 86% 30.06 in 2.5 mi North 9.2 mph - 0.01 in Snow Light Snow
11:26 PM 30.2 °F 21.3 °F 26.6 °F 86% 30.05 in 1.8 mi NNW 10.4 mph - 0.01 in Snow Light Snow
11:37 PM 30.2 °F 20.2 °F 26.6 °F 86% 30.05 in 2.5 mi North 12.7 mph - 0.01 in Snow Light Snow
11:40 PM 30.2 °F 20.2 °F 26.6 °F 86% 30.05 in 2.5 mi North 12.7 mph - 0.01 in Snow Light Snow
11:51 PM 30.0 °F 21.1 °F 26.1 °F 85% 30.06 in 2.0 mi North 10.4 mph - 0.01 in Snow Light Snow